TimeEST,TemperatureF,Dew PointF,Humidity,Sea Level PressureIn,VisibilityMPH,Wind Direction,Wind SpeedMPH,Gust SpeedMPH,PrecipitationIn,Events,Conditions,WindDirDegrees,DateUTC
12:00 AM,78.8,69.8,74,29.95,6.2,NNE,10.4,-,N/A,,Partly Cloudy,20,2013-01-08 05:00:00
1:00 AM,78,69,68,29.95,12,North,9.2,,,,Haze,0,2013-01-08 06:00:00
1:00 AM,78.8,69.8,74,29.95,6.2,North,9.2,-,N/A,,Partly Cloudy,360,2013-01-08 06:00:00
2:00 AM,77.0,69.8,78,29.92,6.2,NW,5.8,-,N/A,,Scattered Clouds,310,2013-01-08 07:00:00
3:00 AM,78.8,68.0,69,29.92,6.2,NW,8.1,-,N/A,,Partly Cloudy,320,2013-01-08 08:00:00
4:00 AM,78,69,68,29.91,12,North,6.9,,,,Haze,350,2013-01-08 09:00:00
4:00 AM,77.0,69.8,78,29.89,6.2,North,6.9,-,N/A,,Scattered Clouds,350,2013-01-08 09:00:00
5:00 AM,78.8,71.6,78,29.92,6.2,East,6.9,-,N/A,Rain,Light Rain Showers,100,2013-01-08 10:00:00
6:00 AM,78.8,71.6,78,29.92,6.2,East,17.3,-,N/A,,Scattered Clouds,100,2013-01-08 11:00:00
7:00 AM,82,72,65,29.96,6,East,24.2,,,Rain,Light Rain Showers,100,2013-01-08 12:00:00
7:00 AM,82.4,71.6,70,29.95,6.2,East,24.2,-,N/A,,Mostly Cloudy,100,2013-01-08 12:00:00
8:00 AM,80.6,73.4,79,29.98,6.2,ESE,19.6,-,N/A,,Scattered Clouds,120,2013-01-08 13:00:00
9:00 AM,84.2,71.6,66,30.01,6.2,ESE,21.9,-,N/A,,Partly Cloudy,120,2013-01-08 14:00:00
10:00 AM,84,71,56,30.01,12,ESE,24.2,,,,Haze,110,2013-01-08 15:00:00
10:00 AM,84.2,71.6,66,30.01,6.2,ESE,24.2,-,N/A,,Partly Cloudy,110,2013-01-08 15:00:00
11:00 AM,84.2,69.8,62,29.95,6.2,ESE,19.6,-,N/A,,Partly Cloudy,110,2013-01-08 16:00:00
12:00 PM,87.8,71.6,58,29.98,6.2,ESE,23.0,-,N/A,,Partly Cloudy,120,2013-01-08 17:00:00
1:00 PM,89,62,30,29.99,15,ESE,24.2,,,,Haze,120,2013-01-08 18:00:00
1:00 PM,89.6,60.8,38,29.98,6.2,ESE,24.2,-,N/A,,Partly Cloudy,120,2013-01-08 18:00:00
2:00 PM,87.8,69.8,55,29.95,6.2,ESE,16.1,-,N/A,,Partly Cloudy,120,2013-01-08 19:00:00
3:00 PM,87.8,69.8,55,29.95,6.2,SE,21.9,-,N/A,,Partly Cloudy,140,2013-01-08 20:00:00
4:00 PM,87,72,53,29.94,6,SE,21.9,,,,Scattered Clouds,130,2013-01-08 21:00:00
4:00 PM,86.0,71.6,62,29.92,6.2,SE,21.9,-,N/A,,Partly Cloudy,130,2013-01-08 21:00:00
5:00 PM,84.2,71.6,66,29.95,6.2,ESE,21.9,-,N/A,,Partly Cloudy,120,2013-01-08 22:00:00
6:00 PM,84.2,68.0,58,29.95,6.2,ESE,16.1,-,N/A,,Scattered Clouds,110,2013-01-08 23:00:00
7:00 PM,82.4,69.8,66,29.98,6.2,SE,17.3,-,N/A,,Partly Cloudy,130,2013-01-09 00:00:00
8:00 PM,82.4,68.0,62,29.98,6.2,SE,18.4,-,N/A,,Partly Cloudy,130,2013-01-09 01:00:00
9:00 PM,82.4,69.8,66,30.01,6.2,ESE,13.8,-,N/A,,Scattered Clouds,110,2013-01-09 02:00:00
10:00 PM,82.4,69.8,66,30.01,6.2,SE,18.4,-,N/A,,Mostly Cloudy,130,2013-01-09 03:00:00
11:00 PM,84.2,68.0,58,30.01,6.2,East,19.6,-,N/A,,Mostly Cloudy,100,2013-01-09 04:00:00